• In India
  • List of Countries
  • For 7 days
  • Water Temperature
  • Weather Map
  • Weather Widgets
  • user-avatar
    Login

    Hourly Weather Hyderabad

    Today, 24 February, Monday

    Time Temperature Precipitation Wind Pressure Humidity
    00:00 +24°C° 0 mm 3 mps 717 mmHg 53%
    01:00 +24°C° 0 mm 3 mps 716 mmHg 57%
    02:00 +22°C° 0 mm 3 mps 715 mmHg 61%
    03:00 +22°C° 0 mm 3 mps 715 mmHg 62%
    04:00 +21°C° 0 mm 3 mps 715 mmHg 63%
    05:00 +21°C° 0 mm 3 mps 716 mmHg 63%
    06:00 +22°C° 0 mm 3 mps 716 mmHg 58%
    07:00 +25°C° 0 mm 3 mps 717 mmHg 53%
    08:00 +26°C° 0 mm 4 mps 717 mmHg 48%
    09:00 +28°C° 0 mm 4 mps 717 mmHg 41%
    10:00 +32°C° 0 mm 4 mps 718 mmHg 34%
    11:00 +34°C° 0 mm 5 mps 718 mmHg 26%
    12:00 +34°C° 0 mm 4 mps 717 mmHg 24%
    13:00 +35°C° 0 mm 3 mps 716 mmHg 22%
    14:00 +36°C° 0 mm 2 mps 715 mmHg 20%
    15:00 +35°C° 0 mm 2 mps 715 mmHg 20%
    16:00 +35°C° 0 mm 2 mps 715 mmHg 21%
    17:00 +34°C° 0 mm 3 mps 715 mmHg 21%
    18:00 +33°C° 0 mm 3 mps 715 mmHg 26%
    19:00 +30°C° 0 mm 3 mps 715 mmHg 31%
    20:00 +28°C° 0 mm 4 mps 715 mmHg 36%
    21:00 +27°C° 0 mm 4 mps 715 mmHg 45%
    22:00 +26°C° 0 mm 4 mps 715 mmHg 53%
    23:00 +25°C° 0 mm 5 mps 715 mmHg 61%

    Tomorrow, 25 February, Tuesday

    Time Temperature Precipitation Wind Pressure Humidity
    00:00 +25°C° 0 mm 4 mps 714 mmHg 62%
    01:00 +23°C° 0 mm 4 mps 714 mmHg 63%
    02:00 +24°C° 0 mm 3 mps 713 mmHg 64%
    03:00 +24°C° 0 mm 3 mps 714 mmHg 64%
    04:00 +24°C° 0 mm 3 mps 714 mmHg 64%
    05:00 +23°C° 0 mm 2 mps 714 mmHg 64%
    06:00 +24°C° 0 mm 3 mps 715 mmHg 61%
    07:00 +25°C° 0 mm 3 mps 716 mmHg 57%
    08:00 +26°C° 0 mm 3 mps 717 mmHg 54%
    09:00 +28°C° 0 mm 3 mps 717 mmHg 48%
    10:00 +30°C° 0 mm 3 mps 717 mmHg 41%
    11:00 +33°C° 0 mm 3 mps 717 mmHg 35%
    12:00 +33°C° 0 mm 3 mps 716 mmHg 32%
    13:00 +34°C° 0 mm 3 mps 715 mmHg 29%
    14:00 +35°C° 0 mm 4 mps 714 mmHg 27%
    15:00 +34°C° 0 mm 3 mps 714 mmHg 28%
    16:00 +34°C° 0 mm 3 mps 714 mmHg 30%
    17:00 +32°C° 0 mm 2 mps 713 mmHg 32%
    18:00 +31°C° 0 mm 2 mps 714 mmHg 34%
    19:00 +30°C° 0 mm 3 mps 714 mmHg 36%
    20:00 +29°C° 0 mm 3 mps 714 mmHg 38%
    21:00 +28°C° 0 mm 3 mps 714 mmHg 48%
    22:00 +26°C° 0 mm 3 mps 714 mmHg 58%
    23:00 +25°C° 0 mm 3 mps 714 mmHg 68%

    Day after tomorrow, 26 February, Wednesday

    Time Temperature Precipitation Wind Pressure Humidity
    00:00 +25°C° 0 mm 2 mps 714 mmHg 71%
    01:00 +24°C° 0 mm 2 mps 714 mmHg 73%
    02:00 +24°C° 0 mm 1 mps 714 mmHg 75%
    03:00 +23°C° 0 mm 1 mps 714 mmHg 78%
    04:00 +23°C° 0 mm 1 mps 714 mmHg 80%
    05:00 +22°C° 0 mm 1 mps 714 mmHg 83%
    06:00 +23°C° 0 mm 1 mps 715 mmHg 79%
    07:00 +24°C° 0 mm 1 mps 716 mmHg 75%
    08:00 +25°C° 0 mm 2 mps 717 mmHg 71%
    09:00 +27°C° 0 mm 2 mps 717 mmHg 61%
    10:00 +29°C° 0 mm 2 mps 717 mmHg 52%
    11:00 +32°C° 0 mm 2 mps 717 mmHg 42%
    12:00 +32°C° 0 mm 2 mps 716 mmHg 38%
    13:00 +34°C° 0 mm 2 mps 715 mmHg 34%
    14:00 +35°C° 0 mm 2 mps 714 mmHg 29%
    15:00 +35°C° 0 mm 3 mps 714 mmHg 30%
    16:00 +34°C° 0 mm 3 mps 714 mmHg 31%
    17:00 +34°C° 0 mm 4 mps 714 mmHg 32%
    18:00 +32°C° 0 mm 4 mps 715 mmHg 37%
    19:00 +30°C° 0 mm 4 mps 715 mmHg 42%
    20:00 +28°C° 0 mm 4 mps 715 mmHg 46%
    21:00 +27°C° 0 mm 4 mps 715 mmHg 54%
    22:00 +26°C° 0 mm 4 mps 715 mmHg 61%
    23:00 +26°C° 0 mm 3 mps 716 mmHg 68%

    27 February, Thursday

    Time Temperature Precipitation Wind Pressure Humidity
    00:00 +25°C° 0 mm 3 mps 715 mmHg 71%
    01:00 +24°C° 0 mm 3 mps 715 mmHg 74%
    02:00 +24°C° 0 mm 2 mps 714 mmHg 77%
    03:00 +24°C° 0 mm 2 mps 715 mmHg 78%
    04:00 +23°C° 0 mm 2 mps 715 mmHg 79%
    05:00 +23°C° 0 mm 1 mps 715 mmHg 79%
    06:00 +24°C° 0 mm 2 mps 716 mmHg 74%
    07:00 +25°C° 0 mm 2 mps 717 mmHg 68%
    08:00 +26°C° 0 mm 2 mps 718 mmHg 63%
    09:00 +28°C° 0 mm 2 mps 718 mmHg 54%
    10:00 +30°C° 0 mm 3 mps 718 mmHg 45%
    11:00 +33°C° 0 mm 3 mps 718 mmHg 36%
    12:00 +34°C° 0 mm 3 mps 717 mmHg 33%
    13:00 +34°C° 0 mm 3 mps 716 mmHg 30%
    14:00 +35°C° 0 mm 3 mps 715 mmHg 28%
    15:00 +34°C° 0 mm 3 mps 715 mmHg 29%
    16:00 +34°C° 0 mm 3 mps 715 mmHg 30%
    17:00 +34°C° 0 mm 3 mps 714 mmHg 31%
    18:00 +31°C° 0 mm 3 mps 715 mmHg 35%
    19:00 +30°C° 0 mm 3 mps 715 mmHg 39%
    20:00 +28°C° 0 mm 3 mps 715 mmHg 43%
    21:00 +28°C° 0 mm 3 mps 715 mmHg 45%
    22:00 +27°C° 0 mm 3 mps 715 mmHg 47%
    23:00 +26°C° 0 mm 3 mps 715 mmHg 50%

    28 February, Friday

    Time Temperature Precipitation Wind Pressure Humidity
    00:00 +26°C° 0 mm 2 mps 715 mmHg 55%
    01:00 +25°C° 0 mm 2 mps 714 mmHg 60%
    02:00 +24°C° 0 mm 2 mps 714 mmHg 66%
    03:00 +24°C° 0 mm 2 mps 714 mmHg 69%
    04:00 +23°C° 0 mm 2 mps 714 mmHg 73%
    05:00 +21°C° 0 mm 2 mps 714 mmHg 76%
    06:00 +24°C° 0 mm 2 mps 715 mmHg 70%
    07:00 +25°C° 0 mm 3 mps 715 mmHg 64%
    08:00 +26°C° 0 mm 3 mps 716 mmHg 58%
    09:00 +28°C° 0 mm 4 mps 716 mmHg 50%
    10:00 +30°C° 0 mm 4 mps 716 mmHg 42%
    11:00 +33°C° 0 mm 4 mps 717 mmHg 34%
    12:00 +34°C° 0 mm 3 mps 716 mmHg 31%
    13:00 +35°C° 0 mm 3 mps 715 mmHg 27%
    14:00 +36°C° 0 mm 3 mps 714 mmHg 23%
    15:00 +36°C° 0 mm 3 mps 714 mmHg 24%
    16:00 +35°C° 0 mm 3 mps 713 mmHg 24%
    17:00 +35°C° 0 mm 4 mps 713 mmHg 25%
    18:00 +33°C° 0 mm 4 mps 714 mmHg 29%
    19:00 +30°C° 0 mm 3 mps 714 mmHg 33%
    20:00 +29°C° 0 mm 3 mps 714 mmHg 37%
    21:00 +28°C° 0 mm 3 mps 714 mmHg 45%
    22:00 +27°C° 0 mm 4 mps 714 mmHg 53%
    23:00 +26°C° 0 mm 4 mps 714 mmHg 61%

    29 February, Saturday

    Time Temperature Precipitation Wind Pressure Humidity
    00:00 +25°C° 0 mm 3 mps 714 mmHg 62%
    01:00 +25°C° 0 mm 3 mps 713 mmHg 63%
    02:00 +25°C° 0 mm 3 mps 713 mmHg 64%
    03:00 +24°C° 0 mm 3 mps 713 mmHg 65%
    04:00 +23°C° 0 mm 2 mps 713 mmHg 66%
    05:00 +23°C° 0 mm 2 mps 713 mmHg 68%
    06:00 +24°C° 0 mm 3 mps 714 mmHg 63%
    07:00 +25°C° 0 mm 3 mps 715 mmHg 58%
    08:00 +27°C° 0 mm 3 mps 716 mmHg 53%
    09:00 +29°C° 0 mm 3 mps 716 mmHg 46%
    10:00 +31°C° 0 mm 3 mps 716 mmHg 39%
    11:00 +34°C° 0 mm 3 mps 716 mmHg 32%
    12:00 +34°C° 0 mm 3 mps 715 mmHg 30%
    13:00 +35°C° 0 mm 3 mps 714 mmHg 28%
    14:00 +36°C° 0 mm 2 mps 713 mmHg 25%
    15:00 +35°C° 0 mm 2 mps 713 mmHg 26%
    16:00 +35°C° 0 mm 2 mps 713 mmHg 27%
    17:00 +34°C° 0 mm 2 mps 713 mmHg 28%
    18:00 +33°C° 0 mm 3 mps 713 mmHg 30%
    19:00 +30°C° 0 mm 3 mps 714 mmHg 33%
    20:00 +29°C° 0 mm 3 mps 714 mmHg 36%
    21:00 +28°C° 0 mm 3 mps 714 mmHg 39%
    22:00 +28°C° 0 mm 3 mps 714 mmHg 42%
    23:00 +27°C° 0 mm 2 mps 714 mmHg 45%
    Show more